weather.gov     
National Weather Service

Terminal Aerodrome Forecast
NWS Homepage
This page is being discontinued on March 12, 2014.
The same data is available at this site. Please update your bookmarks.
Thank you, and we apologize for the inconvenience.
Please send an email to SR-SRH.Webmaster@noaa.gov with any concerns.


Current Version
Previous Version:    01  02  03  04  05  06  07  08  09  10  11  12  13  14  15  16  17  18  19  20  21  22  23  24  25  26  27  28  29  30  
   31  32  33  34  35  36  37  38  39  40  41  
[Printable]
002
FTUS43 KGRB 311800 AAA
TAFAUW
TAF AMD
KAUW 311826Z 3118/0118 34007G13KT P6SM BKN020
     FM312200 02008KT P6SM BKN025
     FM010400 04010G16KT P6SM SCT035 BKN060
     FM011000 05010G18KT 6SM -SN BKN035
      TEMPO 0110/0114 3SM -SN BKN025
     FM011600 05011G18KT P6SM BKN070=


U.S. Dept. of Commerce
NOAA National Weather Service
1325 East West Highway
Silver Spring, MD 20910
E-mail: w-nws.webmaster@noaa.gov
Page last modified: May 16, 2007
NATIONAL WEATHER SERVICE: for Safety, for Work, for Fun - FOR LIFE